STARLINK-11277 [DTC]

Last updated on Mon Oct 21 2024 00:02:04 GMT+0000 (Coordinated Universal Time)

1 61205U 24171F 24294.61154411 .00002061 00000+0 16579-4 0 9993 2 61205 53.1572 146.6265 0000229 181.5841 178.5179 15.76721624 5060
UTC large
Height (km)
Speed (km/s)
/
Latitude / Longitude
Inclination (degrees)
Orbital Period (minutes)
Azimuth
Elevation
Range (km)
Doppler Factor

Next 0 passes for location: London (51.5072 / 0.1276)

Sorry there are no passes over London.